Terug naar catalogus

STARLINK-37820

ActiefCommunicatieSSO
NORAD 69423·PAYLOAD·🇺🇸 United States

Gelanceerd Jun 7, 2026 vanaf Vandenberg Space Force Base

Loading…

Volgende Passages (komende 24 uur)

TLE

VersSource: CelesTrak SupGP

Epoch: Sep 15, 2026, 03:42 UTC

1 69423C 26126D   26258.15465278 -.00010078  00000+0 -31263-3 0  2585
2 69423  97.2849 119.3950 0001997  99.5460 149.7895 15.33463850    14

Volg STARLINK-37820 in realtime met AllMySat

Download on the App Store